Weather Roundup
Issued by NWS Chicago, IL

Home | Current Version | Previous Version | Graphics & Text | Print | Product List | Glossary On
Versions: 1 2 3 4 5 6 7 8 9 10 11 12 13 14 15 16 17 18 19 20 21 22 23 24 25 26 27 28 29 30 31 32 33 34 35 36 37 38 39 40 41 42 43 44 45 46 47 48 49 50
000
NZUS59 KLOT 300608
HRRLOT

CHICAGO AREA WEATHER ROUNDUP
NATIONAL WEATHER SERVICE CHICAGO/ROMEOVILLE IL
100 AM CDT TUE JUN 30 2015

NOTE: "FAIR" INDICATES FEW OR NO CLOUDS BELOW 12,000 FEET WITH NO
SIGNIFICANT WEATHER AND/OR OBSTRUCTIONS TO VISIBILITY.

* THESE STATIONS ARE NOT UNDER NWS QUALITY CONTROL. THEY ALSO MAY NOT
  REPORT WEATHER SUCH AS PRECIPITATION OR FOG.

ILZ005-006-012>014-019>023-300700-
NORTHEAST ILLINOIS

CITY           SKY/WX    TMP DP  RH WIND       PRES   REMARKS
OHARE          LGT RAIN  66  64  93 SW6       29.77F FOG
6HR MIN TEMP:  64; 6HR MAX TEMP:  70; 6HR PCP:  0.05;

MIDWAY         CLOUDY    67  65  93 S7        29.78F FOG
6HR MIN TEMP:  67; 6HR MAX TEMP:  73;

AURORA         MOCLDY    66  60  81 SW6       29.79S
6HR MIN TEMP:  64; 6HR MAX TEMP:  71;

LANSING*       CLEAR     63  61  93 S3        29.80F FOG
JOLIET*        MOCLDY    67  66  99 W5        29.80S FOG
WAUKEGAN       MOCLDY    60  60 100 CALM      29.77S FOG
6HR MIN TEMP:  59; 6HR MAX TEMP:  67;

DUPAGE AIRPORT LGT RAIN  66  64  93 S10       29.77S FOG
6HR MIN TEMP:  62; 6HR MAX TEMP:  70; 6HR PCP:  0.06;

WHEELING       LGT RAIN  66  64  93 S5        29.78F
6HR MIN TEMP:  63; 6HR MAX TEMP:  71; 6HR PCP:  0.01;

KANKAKEE*      PTCLDY    64  64  97 S3        29.80F
MORRIS*        LGT RAIN  65  62  90 W3        29.76F
LEWIS AIRPORT* MOCLDY    64  64 100 SW5       29.79F FOG
NORTHERLY IS     N/A     66  63  90 S6          N/A
$$

WIZ051-052-058>065-066-070>072-300700-
SOUTHEAST WISCONSIN

CITY           SKY/WX    TMP DP  RH WIND       PRES   REMARKS
MILWAUKEE      MOCLDY    63  61  93 CALM      29.77S FOG
6HR MIN TEMP:  62; 6HR MAX TEMP:  70;

KENOSHA*       MOCLDY    63  61  93 CALM      29.78S FOG
RACINE*        PTCLDY    63  61  93 S6        29.79S
BURLINGTON     MOCLDY    60  60  99 CALM      29.78S FOG
WAUKESHA       CLOUDY    61  59  94 CALM      29.79S FOG
WEST BEND      CLOUDY    61  61 100 CALM      29.78S FOG
$$

INZ001>003-010>013-019-020-300700-
NORTHWEST INDIANA

CITY           SKY/WX    TMP DP  RH WIND       PRES   REMARKS
GARY*          PTCLDY    66  66 100 CALM      29.80S FOG
6HR MIN TEMP:  66; 6HR MAX TEMP:  72;

MICHIGAN CITY* NOT AVBL
RENSSELAER*    NOT AVBL
VALPARAISO     MOCLDY    63  61  93 S5        29.81F
$$

LMZ740>746-300700-
SOUTHERN LAKE MICHIGAN

STATION/POSITION TIME  SKY/WX   TEMP WIND        PRES    VSBY
                                AIR  DIR/SP/G
                 (UTC)          (F)  (DEG/KT/KT) (MB)    (MI)
HARRISON CRIB    0500            65  160/  9/ 10   N/A
BURNHAM HARBOR   0600            66  190/  6/  7   N/A
CALUMET HARBOR   0500            67  180/  4/  5   N/A
BURNS HARBOR     0500            65  170/  7/ 13 1009.8S
MICHIGAN CITY    0500            64  130/  8/ 10   N/A
$$

ABBREVIATIONS USED IN REMARKS
   TC - TEMPERATURE IN CELSIUS
  WCI - WIND CHILL INDEX
   HX - HEAT INDEX
  VSB - VISIBILITY
$$


USA.gov is the U.S. government's official web portal to all federal, state and local government web resources and services.